星链-2229 (STARLINK-2229 )

导读 | 豆包AI

STARLINK-2229是美国太空探索技术公司SpaceX星链星座的一颗卫星,于2021年3月24日发射升空。作为星链互联网星座组网卫星,它旨在为全球偏远及欠发达地区提供高速、低延迟宽带互联网服务,依托低轨轨道布局提升覆盖范围与信号质量,是SpaceX星链大规模组网进程中的组成单元。

Basic Information
目录编号:
47992
目录名称:
STARLINK-2229
国际标识:
2021-024R
轨道中心:
EARTH
卫星名称:
星链-2229
卫星全名:
星链-2229 (STARLINK-2229 )
卫星状态:
已陨落 最后检测时间 2025-02-25
发射日期:
2021-03-24 UTC
国别 :
美国 (US)
星等 :
--
Orbit Information
数据来源 国际轨道数据
星历时间: 2025-02-25T11:02:09+0800
轨道信息已过期382天
半长轴: 6517.549km
偏心率: 0.0000203
轨道倾角: 53.017°
近地点辐角 75.122°
升交点赤经 109.827°
平近点角 22.048°
近地点: 139.281km
远地点: 139.547km
周期: 87.274分钟
每日圈数: 16.499711
Detailed Information
固有亮度:
5
最大亮度:
2.5
卫星平台:
Starlink V1.0
覆盖范围:
全球
运营商:
太空探索技术公司
运营商所在国:
美国
制造商(研发单位):
太空探索技术公司
制造商所在国:
美国
使用方式:
暂无
Satellite Introduction
星链(Starlink)计划是由太空探索技术公司(SpaceX)提出的一个巨型低轨卫星互联网星座项目,计划在2019年至2024年间在太空搭建由约1.2万颗卫星组成的“星链”网络,其中1584颗将部署在地球上空550千米处的近地轨道,并从2020年开始工作。该卫星仍在工作。